Location: Newark
(35.2672°N, 80.7344°W)
Time: 04:26:37
(UTC+00:00)

Vanguard 2 Rocket - All Passes

Search period start: 18 January 2020 00:00
Search period end: 28 January 2020 00:00
Orbit: 554 x 3326 km, 32.9° (Epoch: 17 January)

Date Brightness Start Highest point End Pass type
(mag) Time Alt. Az. Time Alt. Az. Time Alt. Az.
18 Jan - 09:50:33 10° SSE 09:52:41 13° SE 09:55:08 10° ESE visible
18 Jan - 11:58:58 10° SW 12:04:31 55° SSE 12:14:08 10° E visible
18 Jan - 14:10:43 10° W 14:18:33 79° S 14:33:00 10° E daylight
18 Jan - 16:23:29 10° W 16:34:14 64° SSW 16:52:09 10° ESE daylight
18 Jan - 18:38:06 10° W 18:50:53 37° SSW 19:07:55 10° SSE daylight
18 Jan - 21:01:12 10° WSW 21:07:29 12° SW 21:14:05 10° SSW daylight
19 Jan - 11:00:36 10° SW 11:05:13 37° SSE 11:12:24 10° E visible
19 Jan - 13:11:46 10° WSW 13:18:21 76° S 13:30:28 10° E daylight
19 Jan - 15:24:06 10° W 15:33:18 70° SSW 15:49:40 10° ESE daylight
19 Jan - 17:37:43 10° W 17:49:29 44° SSW 18:06:57 10° SE daylight
19 Jan - 19:55:50 10° WSW 20:06:08 19° SW 20:18:02 10° S daylight
20 Jan - 10:02:42 10° SSW 10:06:12 22° SE 10:10:51 10° E visible
20 Jan - 12:12:59 10° WSW 12:18:33 67° SSE 12:28:22 10° E daylight
20 Jan - 14:24:58 10° W 14:32:45 75° S 14:47:04 10° ESE daylight
20 Jan - 16:37:51 10° W 16:48:19 52° SSW 17:05:20 10° SE daylight
20 Jan - 18:53:33 10° W 19:04:47 26° SW 19:19:08 10° SSE daylight
21 Jan - 09:06:26 10° SSE 09:07:18 10° SE 09:08:12 10° SE visible
21 Jan - 11:14:23 10° SW 11:19:05 51° SSE 11:26:45 10° E visible
21 Jan - 13:26:00 10° W 13:32:34 77° S 13:44:38 10° E daylight
21 Jan - 15:38:25 10° W 15:47:28 59° SSW 16:03:15 10° ESE daylight
21 Jan - 17:52:36 10° W 18:03:30 33° SSW 18:18:57 10° SSE daylight
21 Jan - 20:17:13 10° SW 20:20:06 11° SW 20:23:08 10° SSW daylight
22 Jan - 10:16:00 10° SW 10:19:57 34° SSE 10:25:34 10° E visible
22 Jan - 12:27:10 10° W 12:32:43 74° S 12:42:33 10° E daylight
22 Jan - 14:39:14 10° W 14:46:57 66° SSW 15:00:57 10° ESE daylight
22 Jan - 16:52:28 10° W 17:02:25 40° SSW 17:17:56 10° SE daylight
22 Jan - 19:10:30 10° WSW 19:18:47 16° SW 19:28:38 10° S daylight
23 Jan - 09:17:59 10° SSW 09:20:58 19° SSE 09:24:33 10° ESE visible
23 Jan - 11:28:26 10° WSW 11:33:11 65° SSE 11:41:00 10° E visible
23 Jan - 13:40:16 10° W 13:46:48 72° S 13:58:42 10° ESE daylight
23 Jan - 15:52:51 10° W 16:01:37 47° SSW 16:16:22 10° SE daylight
23 Jan - 18:08:18 10° WSW 18:17:35 22° SSW 18:29:51 10° S daylight
24 Jan - 10:29:47 10° SW 10:33:54 48° SSE 10:39:57 10° E visible
24 Jan - 12:41:25 10° W 12:46:57 74° S 12:56:44 10° E daylight
24 Jan - 14:53:36 10° W 15:01:08 54° SSW 15:14:29 10° SE daylight
24 Jan - 17:07:33 10° W 17:16:34 28° SSW 17:29:43 10° SSE daylight
25 Jan - 09:31:15 10° SW 09:34:49 31° SSE 09:39:19 10° E visible
25 Jan - 11:42:37 10° W 11:47:22 72° S 11:55:13 10° E visible
25 Jan - 13:54:34 10° W 14:01:00 61° SSW 14:12:34 10° ESE daylight
25 Jan - 16:07:34 10° W 16:15:49 34° SSW 16:28:50 10° SSE daylight
25 Jan - 18:26:13 10° WSW 18:31:49 13° SSW 18:38:19 10° S daylight
26 Jan - 08:33:00 10° SSW 08:35:49 19° SSE 08:38:51 10° ESE visible
26 Jan - 10:43:51 10° WSW 10:48:02 62° S 10:54:12 10° E visible
26 Jan - 12:55:42 10° W 13:01:11 67° S 13:10:48 10° ESE daylight
26 Jan - 15:08:06 10° W 15:15:22 40° SSW 15:27:32 10° SE daylight
26 Jan - 17:23:40 10° WSW 17:30:50 18° SSW 17:40:11 10° S daylight
27 Jan - 07:35:43 10° SSE 07:36:43 11° SSE 07:37:41 10° SE night (unlit)
27 Jan - 09:45:04 10° WSW 09:48:52 46° SSE 09:53:43 10° E visible
27 Jan - 11:56:52 10° W 12:01:36 70° S 12:09:24 10° E visible
27 Jan - 14:08:58 10° W 14:15:14 47° SSW 14:26:04 10° SE daylight
27 Jan - 16:22:54 10° WSW 16:30:06 23° SSW 16:40:23 10° SSE daylight
